TimeEDT,TemperatureF,Dew PointF,Humidity,Sea Level PressureIn,VisibilityMPH,Wind Direction,Wind SpeedMPH,Gust SpeedMPH,PrecipitationIn,Events,Conditions,WindDirDegrees,DateUTC
12:00 AM,82.4,75.2,79,30.06,6.2,ESE,6.9,-,N/A,,Mostly Cloudy,110,2013-08-10 04:00:00
1:00 AM,82.4,75.2,79,30.05,6.2,ENE,6.9,-,N/A,,Mostly Cloudy,70,2013-08-10 05:00:00
2:00 AM,82,75,73,30.05,8,East,6.9,,,,Partly Cloudy,90,2013-08-10 06:00:00
2:00 AM,82.4,75.2,79,30.05,6.2,East,6.9,-,N/A,,Mostly Cloudy,90,2013-08-10 06:00:00
3:00 AM,82.4,75.2,79,30.04,6.2,East,5.8,-,N/A,,Scattered Clouds,90,2013-08-10 07:00:00
4:00 AM,80.6,73.4,79,30.04,6.2,East,5.8,-,N/A,,Scattered Clouds,100,2013-08-10 08:00:00
5:00 AM,81,76,80,30.06,8,East,4.6,,,,Scattered Clouds,90,2013-08-10 09:00:00
5:00 AM,80.6,75.2,84,30.05,6.2,East,4.6,-,N/A,,Scattered Clouds,90,2013-08-10 09:00:00
6:00 AM,80.6,75.2,84,30.06,6.2,East,3.5,-,N/A,,Scattered Clouds,100,2013-08-10 10:00:00
7:00 AM,80.6,73.4,79,30.07,6.2,East,3.5,-,N/A,,Scattered Clouds,90,2013-08-10 11:00:00
8:00 AM,82.4,77.0,84,30.08,6.2,ESE,6.9,-,N/A,,Partly Cloudy,110,2013-08-10 12:00:00
9:00 AM,84.2,75.2,74,30.09,6.2,ESE,8.1,-,N/A,,Partly Cloudy,110,2013-08-10 13:00:00
10:00 AM,86.0,73.4,66,30.10,6.2,ESE,11.5,-,N/A,,Scattered Clouds,110,2013-08-10 14:00:00
11:00 AM,87.8,75.2,66,30.11,6.2,East,11.5,-,N/A,,Mostly Cloudy,90,2013-08-10 15:00:00
12:00 PM,86.0,73.4,66,30.11,6.2,ESE,10.4,-,N/A,,Scattered Clouds,110,2013-08-10 16:00:00
1:00 PM,-9999,-9999,N/A,30.10,6.2,East,10.4,-,N/A,,Scattered Clouds,90,2013-08-10 17:00:00
2:00 PM,90,75,53,30.11,9,ESE,9.2,,,,Mostly Cloudy,120,2013-08-10 18:00:00
2:00 PM,89.6,75.2,62,30.10,6.2,ESE,9.2,-,N/A,,Mostly Cloudy,120,2013-08-10 18:00:00
3:00 PM,89.6,73.4,59,30.09,6.2,ESE,9.2,-,N/A,,Scattered Clouds,110,2013-08-10 19:00:00
4:00 PM,87.8,75.2,66,30.08,6.2,East,6.9,-,N/A,,Scattered Clouds,90,2013-08-10 20:00:00
5:00 PM,88,77,62,30.09,8,East,9.2,,,,Partly Cloudy,90,2013-08-10 21:00:00
5:00 PM,87.8,77.0,70,30.09,6.2,East,9.2,-,N/A,,Scattered Clouds,90,2013-08-10 21:00:00
6:00 PM,86.0,75.2,70,30.07,6.2,ENE,10.4,-,N/A,,Scattered Clouds,60,2013-08-10 22:00:00
7:00 PM,86.0,75.2,70,30.08,6.2,ENE,10.4,-,N/A,,Scattered Clouds,60,2013-08-10 23:00:00
8:00 PM,85,77,71,30.09,8,ENE,10.4,,,,Partly Cloudy,60,2013-08-11 00:00:00
8:00 PM,84.2,77.0,79,30.09,6.2,ENE,10.4,-,N/A,,Scattered Clouds,60,2013-08-11 00:00:00
9:00 PM,84.2,75.2,74,30.10,6.2,East,6.9,-,N/A,,Scattered Clouds,90,2013-08-11 01:00:00
10:00 PM,84.2,75.2,74,30.11,6.2,East,6.9,-,N/A,,Scattered Clouds,90,2013-08-11 02:00:00
11:00 PM,84,77,74,30.12,9,East,8.1,,,,Mostly Cloudy,80,2013-08-11 03:00:00
11:00 PM,84.2,77.0,79,30.12,6.2,East,8.1,-,N/A,,Mostly Cloudy,80,2013-08-11 03:00:00